Location: Mahannah Oil Field
(37.4664°N, 96.6003°W)
Time: 01:20:34
(UTC+00:00)

Tiros 1 despin weight - Pass Details

Date: 25 January 2021
Orbit: 593 x 642 km, 48.2° (Epoch: 25 February)

Event Time Altitude Azimuth Distance (km) Brightness Sun altitude
Rises 23:39:16 0° 301° (WNW) 2,869 ? -0.1°
Reaches altitude 10° 23:42:02 10° 317° (NW) 1,955 ? -0.6°
Maximum altitude 23:45:32 22° 9° (N) 1,331 ? -1.2°
Drops below altitude 10° 23:49:00 10° 60° (ENE) 1,934 ? -1.9°
Enters shadow 23:50:59 - 73° (ENE) 2,575 ? -2.2°
Sets 23:51:43 0° 76° (ENE) 2,829 - -2.4°
